owner,sensor,date,latitude,longitude,air_temperature,qcFlag 
DISL,ioos:station:DISL:PPTA:1,2018-06-01T00:00:00Z,30.2791,-87.5561,27.9,11111222 
DISL,ioos:station:DISL:PPTA:1,2018-06-01T00:30:00Z,30.2791,-87.5561,27.6,11111222 
DISL,ioos:station:DISL:PPTA:1,2018-06-01T00:35:00Z,30.2791,-87.5561,27.65,1111122 
DISL,ioos:station:DISL:PPTA:1,2018-06-01T01:00:00Z,30.2791,-87.5561,27.6,11111222 
DISL,ioos:station:DISL:PPTA:1,2018-06-01T01:30:00Z,30.2791,-87.5561,27.5,11111222 
DISL,ioos:station:DISL:PPTA:1,2018-06-01T01:35:00Z,30.2791,-87.5561,27.35,1111122 
DISL,ioos:station:DISL:PPTA:1,2018-06-01T02:00:00Z,30.2791,-87.5561,27.3,11111222 
DISL,ioos:station:DISL:PPTA:1,2018-06-01T02:30:00Z,30.2791,-87.5561,27.5,11111222 
DISL,ioos:station:DISL:PPTA:1,2018-06-01T02:35:00Z,30.2791,-87.5561,27.35,1111122 
DISL,ioos:station:DISL:PPTA:1,2018-06-01T03:00:00Z,30.2791,-87.5561,27.4,11111222 
DISL,ioos:station:DISL:PPTA:1,2018-06-01T03:30:00Z,30.2791,-87.5561,27.5,11111222 
DISL,ioos:station:DISL:PPTA:1,2018-06-01T03:35:00Z,30.2791,-87.5561,27.33,1111122 
DISL,ioos:station:DISL:PPTA:1,2018-06-01T04:00:00Z,30.2791,-87.5561,27.3,11111222 
DISL,ioos:station:DISL:PPTA:1,2018-06-01T04:30:00Z,30.2791,-87.5561,27.3,11111222 
DISL,ioos:station:DISL:PPTA:1,2018-06-01T04:35:00Z,30.2791,-87.5561,27.23,1111122 
DISL,ioos:station:DISL:PPTA:1,2018-06-01T05:00:00Z,30.2791,-87.5561,27.4,11111222 
DISL,ioos:station:DISL:PPTA:1,2018-06-01T05:30:00Z,30.2791,-87.5561,27.2,11111222 
DISL,ioos:station:DISL:PPTA:1,2018-06-01T05:35:00Z,30.2791,-87.5561,27.34,1111122 
DISL,ioos:station:DISL:PPTA:1,2018-06-01T06:00:00Z,30.2791,-87.5561,27.2,11111222 
DISL,ioos:station:DISL:PPTA:1,2018-06-01T06:30:00Z,30.2791,-87.5561,27.1,11111222 
DISL,ioos:station:DISL:PPTA:1,2018-06-01T06:35:00Z,30.2791,-87.5561,27.06,1111122 
DISL,ioos:station:DISL:PPTA:1,2018-06-01T07:00:00Z,30.2791,-87.5561,27.2,11111222 
DISL,ioos:station:DISL:PPTA:1,2018-06-01T07:30:00Z,30.2791,-87.5561,27.1,11111222 
DISL,ioos:station:DISL:PPTA:1,2018-06-01T07:35:00Z,30.2791,-87.5561,27.13,1111122 
DISL,ioos:station:DISL:PPTA:1,2018-06-01T08:00:00Z,30.2791,-87.5561,27.0,11111222 
DISL,ioos:station:DISL:PPTA:1,2018-06-01T08:30:00Z,30.2791,-87.5561,27.1,11111222 
DISL,ioos:station:DISL:PPTA:1,2018-06-01T08:35:00Z,30.2791,-87.5561,27.06,1111122 
DISL,ioos:station:DISL:PPTA:1,2018-06-01T09:00:00Z,30.2791,-87.5561,27.1,11111222 
DISL,ioos:station:DISL:PPTA:1,2018-06-01T09:30:00Z,30.2791,-87.5561,27.0,11111222 
DISL,ioos:station:DISL:PPTA:1,2018-06-01T09:35:00Z,30.2791,-87.5561,27.13,1111122 
DISL,ioos:station:DISL:PPTA:1,2018-06-01T10:00:00Z,30.2791,-87.5561,27.0,11111222 
DISL,ioos:station:DISL:PPTA:1,2018-06-01T10:30:00Z,30.2791,-87.5561,27.1,11111222 
DISL,ioos:station:DISL:PPTA:1,2018-06-01T10:35:00Z,30.2791,-87.5561,27.03,1111122 
DISL,ioos:station:DISL:PPTA:1,2018-06-01T11:00:00Z,30.2791,-87.5561,27.0,11111222 
DISL,ioos:station:DISL:PPTA:1,2018-06-01T11:30:00Z,30.2791,-87.5561,27.4,11111222 
DISL,ioos:station:DISL:PPTA:1,2018-06-01T11:35:00Z,30.2791,-87.5561,27.34,1111122 
DISL,ioos:station:DISL:PPTA:1,2018-06-01T12:00:00Z,30.2791,-87.5561,27.8,11111222 
DISL,ioos:station:DISL:PPTA:1,2018-06-01T12:30:00Z,30.2791,-87.5561,28.5,11111222 
DISL,ioos:station:DISL:PPTA:1,2018-06-01T12:35:00Z,30.2791,-87.5561,28.57,1111122 
DISL,ioos:station:DISL:PPTA:1,2018-06-01T13:00:00Z,30.2791,-87.5561,27.5,11111222 
DISL,ioos:station:DISL:PPTA:1,2018-06-01T13:30:00Z,30.2791,-87.5561,28.9,11111222 
DISL,ioos:station:DISL:PPTA:1,2018-06-01T13:35:00Z,30.2791,-87.5561,28.84,1111122 
DISL,ioos:station:DISL:PPTA:1,2018-06-01T14:00:00Z,30.2791,-87.5561,29.0,11111222 
DISL,ioos:station:DISL:PPTA:1,2018-06-01T14:30:00Z,30.2791,-87.5561,29.1,11111222 
DISL,ioos:station:DISL:PPTA:1,2018-06-01T14:35:00Z,30.2791,-87.5561,29.46,1111122 
DISL,ioos:station:DISL:PPTA:1,2018-06-01T15:00:00Z,30.2791,-87.5561,29.9,11111222 
DISL,ioos:station:DISL:PPTA:1,2018-06-01T15:30:00Z,30.2791,-87.5561,30.0,11111222 
DISL,ioos:station:DISL:PPTA:1,2018-06-01T15:35:00Z,30.2791,-87.5561,29.78,1111122 
DISL,ioos:station:DISL:PPTA:1,2018-06-01T16:00:00Z,30.2791,-87.5561,30.0,11111222 
DISL,ioos:station:DISL:PPTA:1,2018-06-01T16:30:00Z,30.2791,-87.5561,29.9,11111222 
DISL,ioos:station:DISL:PPTA:1,2018-06-01T16:35:00Z,30.2791,-87.5561,29.95,1111122 
DISL,ioos:station:DISL:PPTA:1,2018-06-01T17:00:00Z,30.2791,-87.5561,29.8,11111222 
DISL,ioos:station:DISL:PPTA:1,2018-06-01T17:30:00Z,30.2791,-87.5561,29.8,11111222 
DISL,ioos:station:DISL:PPTA:1,2018-06-01T17:36:00Z,30.2791,-87.5561,29.78,1111122 
DISL,ioos:station:DISL:PPTA:1,2018-06-01T18:00:00Z,30.2791,-87.5561,30.2,11111222 
DISL,ioos:station:DISL:PPTA:1,2018-06-01T18:30:00Z,30.2791,-87.5561,30.3,11111222 
DISL,ioos:station:DISL:PPTA:1,2018-06-01T18:35:00Z,30.2791,-87.5561,30.36,1111122 
DISL,ioos:station:DISL:PPTA:1,2018-06-01T19:00:00Z,30.2791,-87.5561,30.3,11111222 
DISL,ioos:station:DISL:PPTA:1,2018-06-01T19:30:00Z,30.2791,-87.5561,30.4,11111222 
DISL,ioos:station:DISL:PPTA:1,2018-06-01T19:35:00Z,30.2791,-87.5561,30.5,1111122 
DISL,ioos:station:DISL:PPTA:1,2018-06-01T20:00:00Z,30.2791,-87.5561,30.2,11111222 
DISL,ioos:station:DISL:PPTA:1,2018-06-01T20:30:00Z,30.2791,-87.5561,30.7,11111222 
DISL,ioos:station:DISL:PPTA:1,2018-06-01T20:35:00Z,30.2791,-87.5561,30.55,1111122 
DISL,ioos:station:DISL:PPTA:1,2018-06-01T21:00:00Z,30.2791,-87.5561,30.3,11111222 
DISL,ioos:station:DISL:PPTA:1,2018-06-01T21:30:00Z,30.2791,-87.5561,30.0,11111222 
DISL,ioos:station:DISL:PPTA:1,2018-06-01T21:35:00Z,30.2791,-87.5561,30.15,1111122 
DISL,ioos:station:DISL:PPTA:1,2018-06-01T22:00:00Z,30.2791,-87.5561,29.6,11111222 
DISL,ioos:station:DISL:PPTA:1,2018-06-01T22:30:00Z,30.2791,-87.5561,30.2,11111222 
DISL,ioos:station:DISL:PPTA:1,2018-06-01T22:35:00Z,30.2791,-87.5561,29.89,1111122 
DISL,ioos:station:DISL:PPTA:1,2018-06-01T23:00:00Z,30.2791,-87.5561,29.7,11111222 
DISL,ioos:station:DISL:PPTA:1,2018-06-01T23:30:00Z,30.2791,-87.5561,30.2,11111222 
DISL,ioos:station:DISL:PPTA:1,2018-06-01T23:35:00Z,30.2791,-87.5561,30.4,1111122 
DISL,ioos:station:DISL:PPTA:1,2018-06-02T00:00:00Z,30.2791,-87.5561,29.9,11111222 
DISL,ioos:station:DISL:PPTA:1,2018-06-02T00:30:00Z,30.2791,-87.5561,28.9,11111222 
DISL,ioos:station:DISL:PPTA:1,2018-06-02T00:35:00Z,30.2791,-87.5561,28.61,1111122 
DISL,ioos:station:DISL:PPTA:1,2018-06-02T01:00:00Z,30.2791,-87.5561,28.5,11111222 
DISL,ioos:station:DISL:PPTA:1,2018-06-02T01:30:00Z,30.2791,-87.5561,28.3,11111222 
DISL,ioos:station:DISL:PPTA:1,2018-06-02T01:35:00Z,30.2791,-87.5561,28.39,1111122 
DISL,ioos:station:DISL:PPTA:1,2018-06-02T02:00:00Z,30.2791,-87.5561,28.3,11111222 
DISL,ioos:station:DISL:PPTA:1,2018-06-02T02:30:00Z,30.2791,-87.5561,28.4,11111222 
DISL,ioos:station:DISL:PPTA:1,2018-06-02T02:36:00Z,30.2791,-87.5561,28.37,1111122 
DISL,ioos:station:DISL:PPTA:1,2018-06-02T03:00:00Z,30.2791,-87.5561,28.4,11111222 
DISL,ioos:station:DISL:PPTA:1,2018-06-02T03:30:00Z,30.2791,-87.5561,28.4,11111222 
DISL,ioos:station:DISL:PPTA:1,2018-06-02T03:35:00Z,30.2791,-87.5561,28.3,1111122 
DISL,ioos:station:DISL:PPTA:1,2018-06-02T04:00:00Z,30.2791,-87.5561,28.4,11111222 
DISL,ioos:station:DISL:PPTA:1,2018-06-02T04:30:00Z,30.2791,-87.5561,28.2,11111222 
DISL,ioos:station:DISL:PPTA:1,2018-06-02T04:35:00Z,30.2791,-87.5561,28.27,1111122 
DISL,ioos:station:DISL:PPTA:1,2018-06-02T05:00:00Z,30.2791,-87.5561,28.2,11111222 
DISL,ioos:station:DISL:PPTA:1,2018-06-02T05:30:00Z,30.2791,-87.5561,28.0,11111222 
DISL,ioos:station:DISL:PPTA:1,2018-06-02T05:35:00Z,30.2791,-87.5561,28.03,1111122 
DISL,ioos:station:DISL:PPTA:1,2018-06-02T06:00:00Z,30.2791,-87.5561,28.0,11111222 
DISL,ioos:station:DISL:PPTA:1,2018-06-02T06:30:00Z,30.2791,-87.5561,28.0,11111222 
DISL,ioos:station:DISL:PPTA:1,2018-06-02T06:36:00Z,30.2791,-87.5561,28.01,1111122 
DISL,ioos:station:DISL:PPTA:1,2018-06-02T07:00:00Z,30.2791,-87.5561,27.8,11111222 
DISL,ioos:station:DISL:PPTA:1,2018-06-02T07:30:00Z,30.2791,-87.5561,27.9,11111222 
DISL,ioos:station:DISL:PPTA:1,2018-06-02T07:35:00Z,30.2791,-87.5561,27.81,1111122 
DISL,ioos:station:DISL:PPTA:1,2018-06-02T08:00:00Z,30.2791,-87.5561,27.7,11111222 
DISL,ioos:station:DISL:PPTA:1,2018-06-02T08:30:00Z,30.2791,-87.5561,27.7,11111222 
DISL,ioos:station:DISL:PPTA:1,2018-06-02T08:35:00Z,30.2791,-87.5561,27.75,1111122 
DISL,ioos:station:DISL:PPTA:1,2018-06-02T09:00:00Z,30.2791,-87.5561,27.6,11111222 
DISL,ioos:station:DISL:PPTA:1,2018-06-02T09:30:00Z,30.2791,-87.5561,27.7,11111222 
DISL,ioos:station:DISL:PPTA:1,2018-06-02T09:35:00Z,30.2791,-87.5561,27.64,1111122 
DISL,ioos:station:DISL:PPTA:1,2018-06-02T10:00:00Z,30.2791,-87.5561,27.6,11111222 
DISL,ioos:station:DISL:PPTA:1,2018-06-02T10:30:00Z,30.2791,-87.5561,27.5,11111222 
DISL,ioos:station:DISL:PPTA:1,2018-06-02T10:35:00Z,30.2791,-87.5561,27.58,1111122 
DISL,ioos:station:DISL:PPTA:1,2018-06-02T11:00:00Z,30.2791,-87.5561,27.6,11111222 
DISL,ioos:station:DISL:PPTA:1,2018-06-02T11:30:00Z,30.2791,-87.5561,27.8,11111222 
DISL,ioos:station:DISL:PPTA:1,2018-06-02T11:35:00Z,30.2791,-87.5561,27.81,1111122 
DISL,ioos:station:DISL:PPTA:1,2018-06-02T12:00:00Z,30.2791,-87.5561,27.8,11111222 
DISL,ioos:station:DISL:PPTA:1,2018-06-02T12:30:00Z,30.2791,-87.5561,27.8,11111222 
DISL,ioos:station:DISL:PPTA:1,2018-06-02T12:36:00Z,30.2791,-87.5561,27.72,1111122 
DISL,ioos:station:DISL:PPTA:1,2018-06-02T13:00:00Z,30.2791,-87.5561,27.8,11111222 
DISL,ioos:station:DISL:PPTA:1,2018-06-02T13:30:00Z,30.2791,-87.5561,28.4,11111222 
DISL,ioos:station:DISL:PPTA:1,2018-06-02T13:36:00Z,30.2791,-87.5561,28.3,1111122 
DISL,ioos:station:DISL:PPTA:1,2018-06-02T14:00:00Z,30.2791,-87.5561,28.7,11111222 
DISL,ioos:station:DISL:PPTA:1,2018-06-02T14:30:00Z,30.2791,-87.5561,28.7,11111222 
DISL,ioos:station:DISL:PPTA:1,2018-06-02T14:35:00Z,30.2791,-87.5561,28.48,1111122 
DISL,ioos:station:DISL:PPTA:1,2018-06-02T15:00:00Z,30.2791,-87.5561,28.6,11111222 
DISL,ioos:station:DISL:PPTA:1,2018-06-02T15:30:00Z,30.2791,-87.5561,29.5,11111222 
DISL,ioos:station:DISL:PPTA:1,2018-06-02T15:35:00Z,30.2791,-87.5561,29.86,1111122 
DISL,ioos:station:DISL:PPTA:1,2018-06-02T16:00:00Z,30.2791,-87.5561,29.8,11111222 
DISL,ioos:station:DISL:PPTA:1,2018-06-02T16:30:00Z,30.2791,-87.5561,29.8,11111222 
DISL,ioos:station:DISL:PPTA:1,2018-06-02T16:35:00Z,30.2791,-87.5561,29.73,1111122 
DISL,ioos:station:DISL:PPTA:1,2018-06-02T17:00:00Z,30.2791,-87.5561,30.2,11111222 
DISL,ioos:station:DISL:PPTA:1,2018-06-02T17:30:00Z,30.2791,-87.5561,30.3,11111222 
DISL,ioos:station:DISL:PPTA:1,2018-06-02T17:35:00Z,30.2791,-87.5561,30.08,1111122 
DISL,ioos:station:DISL:PPTA:1,2018-06-02T18:00:00Z,30.2791,-87.5561,30.1,11111222 
DISL,ioos:station:DISL:PPTA:1,2018-06-02T18:30:00Z,30.2791,-87.5561,30.0,11111222 
DISL,ioos:station:DISL:PPTA:1,2018-06-02T18:36:00Z,30.2791,-87.5561,29.78,1111122 
DISL,ioos:station:DISL:PPTA:1,2018-06-02T19:00:00Z,30.2791,-87.5561,29.6,11111222 
DISL,ioos:station:DISL:PPTA:1,2018-06-02T19:30:00Z,30.2791,-87.5561,30.1,11111222 
DISL,ioos:station:DISL:PPTA:1,2018-06-02T19:36:00Z,30.2791,-87.5561,29.91,1111122 
DISL,ioos:station:DISL:PPTA:1,2018-06-02T20:00:00Z,30.2791,-87.5561,30.0,11111222 
DISL,ioos:station:DISL:PPTA:1,2018-06-02T20:30:00Z,30.2791,-87.5561,30.0,11111222 
DISL,ioos:station:DISL:PPTA:1,2018-06-02T20:36:00Z,30.2791,-87.5561,30.1,1111122 
DISL,ioos:station:DISL:PPTA:1,2018-06-02T21:00:00Z,30.2791,-87.5561,30.2,11111222 
DISL,ioos:station:DISL:PPTA:1,2018-06-02T21:30:00Z,30.2791,-87.5561,30.5,11111222 
DISL,ioos:station:DISL:PPTA:1,2018-06-02T21:36:00Z,30.2791,-87.5561,30.63,1111122 
DISL,ioos:station:DISL:PPTA:1,2018-06-02T22:00:00Z,30.2791,-87.5561,30.7,11111222 
DISL,ioos:station:DISL:PPTA:1,2018-06-02T22:30:00Z,30.2791,-87.5561,30.4,11111222 
DISL,ioos:station:DISL:PPTA:1,2018-06-02T22:36:00Z,30.2791,-87.5561,30.08,1111122 
DISL,ioos:station:DISL:PPTA:1,2018-06-02T23:00:00Z,30.2791,-87.5561,29.8,11111222 
DISL,ioos:station:DISL:PPTA:1,2018-06-02T23:30:00Z,30.2791,-87.5561,30.2,11111222 
DISL,ioos:station:DISL:PPTA:1,2018-06-02T23:35:00Z,30.2791,-87.5561,30.2,1111122 
DISL,ioos:station:DISL:PPTA:1,2018-06-03T00:00:00Z,30.2791,-87.5561,29.7,11111222 
DISL,ioos:station:DISL:PPTA:1,2018-06-03T00:30:00Z,30.2791,-87.5561,29.0,11111222 
DISL,ioos:station:DISL:PPTA:1,2018-06-03T00:36:00Z,30.2791,-87.5561,28.97,1111122 
DISL,ioos:station:DISL:PPTA:1,2018-06-03T01:00:00Z,30.2791,-87.5561,28.7,11111222 
DISL,ioos:station:DISL:PPTA:1,2018-06-03T01:30:00Z,30.2791,-87.5561,28.7,11111222 
DISL,ioos:station:DISL:PPTA:1,2018-06-03T01:36:00Z,30.2791,-87.5561,28.65,1111122 
DISL,ioos:station:DISL:PPTA:1,2018-06-03T02:00:00Z,30.2791,-87.5561,28.7,11111222 
DISL,ioos:station:DISL:PPTA:1,2018-06-03T02:30:00Z,30.2791,-87.5561,28.8,11111222 
DISL,ioos:station:DISL:PPTA:1,2018-06-03T02:36:00Z,30.2791,-87.5561,28.75,1111122 
DISL,ioos:station:DISL:PPTA:1,2018-06-03T03:00:00Z,30.2791,-87.5561,28.5,11111222 
DISL,ioos:station:DISL:PPTA:1,2018-06-03T03:30:00Z,30.2791,-87.5561,28.6,11111222 
DISL,ioos:station:DISL:PPTA:1,2018-06-03T03:36:00Z,30.2791,-87.5561,28.61,1111122 
DISL,ioos:station:DISL:PPTA:1,2018-06-03T04:00:00Z,30.2791,-87.5561,28.2,11111222 
DISL,ioos:station:DISL:PPTA:1,2018-06-03T04:30:00Z,30.2791,-87.5561,28.4,11111222 
DISL,ioos:station:DISL:PPTA:1,2018-06-03T04:36:00Z,30.2791,-87.5561,28.4,1111122 
DISL,ioos:station:DISL:PPTA:1,2018-06-03T05:00:00Z,30.2791,-87.5561,28.4,11111222 
DISL,ioos:station:DISL:PPTA:1,2018-06-03T05:30:00Z,30.2791,-87.5561,28.6,11111222 
DISL,ioos:station:DISL:PPTA:1,2018-06-03T05:36:00Z,30.2791,-87.5561,28.51,1111122 
DISL,ioos:station:DISL:PPTA:1,2018-06-03T06:00:00Z,30.2791,-87.5561,28.6,11111222 
DISL,ioos:station:DISL:PPTA:1,2018-06-03T06:30:00Z,30.2791,-87.5561,28.7,11111222 
DISL,ioos:station:DISL:PPTA:1,2018-06-03T07:00:00Z,30.2791,-87.5561,28.6,11111222 
DISL,ioos:station:DISL:PPTA:1,2018-06-03T07:30:00Z,30.2791,-87.5561,28.5,11111222 
DISL,ioos:station:DISL:PPTA:1,2018-06-03T08:00:00Z,30.2791,-87.5561,28.4,11111222 
DISL,ioos:station:DISL:PPTA:1,2018-06-03T08:30:00Z,30.2791,-87.5561,28.1,11111222 
DISL,ioos:station:DISL:PPTA:1,2018-06-03T09:00:00Z,30.2791,-87.5561,27.9,11111222 
DISL,ioos:station:DISL:PPTA:1,2018-06-03T09:30:00Z,30.2791,-87.5561,27.5,11111222 
DISL,ioos:station:DISL:PPTA:1,2018-06-03T10:00:00Z,30.2791,-87.5561,27.4,11111222 
DISL,ioos:station:DISL:PPTA:1,2018-06-03T10:30:00Z,30.2791,-87.5561,27.1,11111222 
DISL,ioos:station:DISL:PPTA:1,2018-06-03T11:00:00Z,30.2791,-87.5561,27.2,11111222 
DISL,ioos:station:DISL:PPTA:1,2018-06-03T11:30:00Z,30.2791,-87.5561,27.1,11111222 
DISL,ioos:station:DISL:PPTA:1,2018-06-03T12:00:00Z,30.2791,-87.5561,27.2,11111222 
DISL,ioos:station:DISL:PPTA:1,2018-06-03T12:30:00Z,30.2791,-87.5561,27.4,11111222 
DISL,ioos:station:DISL:PPTA:1,2018-06-03T13:00:00Z,30.2791,-87.5561,27.5,11111222 
DISL,ioos:station:DISL:PPTA:1,2018-06-03T13:30:00Z,30.2791,-87.5561,28.5,11111222 
DISL,ioos:station:DISL:PPTA:1,2018-06-03T14:00:00Z,30.2791,-87.5561,28.9,11111222 
DISL,ioos:station:DISL:PPTA:1,2018-06-03T14:30:00Z,30.2791,-87.5561,29.4,11111222 
DISL,ioos:station:DISL:PPTA:1,2018-06-03T15:00:00Z,30.2791,-87.5561,29.7,11111222 
DISL,ioos:station:DISL:PPTA:1,2018-06-03T15:30:00Z,30.2791,-87.5561,30.2,11111222 
DISL,ioos:station:DISL:PPTA:1,2018-06-03T16:00:00Z,30.2791,-87.5561,30.3,11111222 
DISL,ioos:station:DISL:PPTA:1,2018-06-03T16:30:00Z,30.2791,-87.5561,31.4,11111222 
DISL,ioos:station:DISL:PPTA:1,2018-06-03T17:00:00Z,30.2791,-87.5561,30.2,11111222 
DISL,ioos:station:DISL:PPTA:1,2018-06-03T17:30:00Z,30.2791,-87.5561,30.8,11111222 
DISL,ioos:station:DISL:PPTA:1,2018-06-03T18:00:00Z,30.2791,-87.5561,31.8,11111222 
DISL,ioos:station:DISL:PPTA:1,2018-06-03T18:30:00Z,30.2791,-87.5561,31.5,11111222 
DISL,ioos:station:DISL:PPTA:1,2018-06-03T19:00:00Z,30.2791,-87.5561,31.3,11111222 
DISL,ioos:station:DISL:PPTA:1,2018-06-03T19:30:00Z,30.2791,-87.5561,30.8,11111222 
DISL,ioos:station:DISL:PPTA:1,2018-06-03T20:00:00Z,30.2791,-87.5561,30.1,11111222 
DISL,ioos:station:DISL:PPTA:1,2018-06-03T20:30:00Z,30.2791,-87.5561,30.5,11111222 
DISL,ioos:station:DISL:PPTA:1,2018-06-03T21:00:00Z,30.2791,-87.5561,30.3,11111222 
DISL,ioos:station:DISL:PPTA:1,2018-06-03T21:30:00Z,30.2791,-87.5561,30.9,11111222 
DISL,ioos:station:DISL:PPTA:1,2018-06-03T22:00:00Z,30.2791,-87.5561,30.0,11111222 
DISL,ioos:station:DISL:PPTA:1,2018-06-03T22:30:00Z,30.2791,-87.5561,30.0,11111222 
DISL,ioos:station:DISL:PPTA:1,2018-06-03T23:00:00Z,30.2791,-87.5561,29.5,11111222 
DISL,ioos:station:DISL:PPTA:1,2018-06-03T23:30:00Z,30.2791,-87.5561,29.1,11111222 
DISL,ioos:station:DISL:PPTA:1,2018-06-04T00:00:00Z,30.2791,-87.5561,28.9,11111222 
DISL,ioos:station:DISL:PPTA:1,2018-06-04T00:30:00Z,30.2791,-87.5561,28.9,11111222 
DISL,ioos:station:DISL:PPTA:1,2018-06-04T01:00:00Z,30.2791,-87.5561,28.8,11111222 
DISL,ioos:station:DISL:PPTA:1,2018-06-04T01:30:00Z,30.2791,-87.5561,28.9,11111222 
DISL,ioos:station:DISL:PPTA:1,2018-06-04T02:00:00Z,30.2791,-87.5561,29.1,11111222 
DISL,ioos:station:DISL:PPTA:1,2018-06-04T02:35:00Z,30.2791,-87.5561,23.91,1111122 
DISL,ioos:station:DISL:PPTA:1,2018-06-04T03:30:00Z,30.2791,-87.5561,24.7,11111222 
DISL,ioos:station:DISL:PPTA:1,2018-06-04T03:35:00Z,30.2791,-87.5561,25.55,1111122 
DISL,ioos:station:DISL:PPTA:1,2018-06-04T04:00:00Z,30.2791,-87.5561,26.0,11111222 
DISL,ioos:station:DISL:PPTA:1,2018-06-04T04:30:00Z,30.2791,-87.5561,24.6,11111222 
DISL,ioos:station:DISL:PPTA:1,2018-06-04T04:35:00Z,30.2791,-87.5561,24.67,1111122 
DISL,ioos:station:DISL:PPTA:1,2018-06-04T05:00:00Z,30.2791,-87.5561,25.0,11111222 
DISL,ioos:station:DISL:PPTA:1,2018-06-04T05:30:00Z,30.2791,-87.5561,25.1,11111222 
DISL,ioos:station:DISL:PPTA:1,2018-06-04T05:35:00Z,30.2791,-87.5561,24.94,1111122 
DISL,ioos:station:DISL:PPTA:1,2018-06-04T06:00:00Z,30.2791,-87.5561,25.4,11111222 
DISL,ioos:station:DISL:PPTA:1,2018-06-04T06:30:00Z,30.2791,-87.5561,25.0,11111222 
DISL,ioos:station:DISL:PPTA:1,2018-06-04T06:35:00Z,30.2791,-87.5561,24.8,1111122 
DISL,ioos:station:DISL:PPTA:1,2018-06-04T07:00:00Z,30.2791,-87.5561,25.2,11111222 
DISL,ioos:station:DISL:PPTA:1,2018-06-04T07:30:00Z,30.2791,-87.5561,25.0,11111222 
DISL,ioos:station:DISL:PPTA:1,2018-06-04T07:35:00Z,30.2791,-87.5561,25.31,1111122 
DISL,ioos:station:DISL:PPTA:1,2018-06-04T08:00:00Z,30.2791,-87.5561,25.2,11111222 
DISL,ioos:station:DISL:PPTA:1,2018-06-04T08:05:00Z,30.2791,-87.5561,25.21,1111122 
DISL,ioos:station:DISL:PPTA:1,2018-06-04T08:30:00Z,30.2791,-87.5561,25.0,11111222 
DISL,ioos:station:DISL:PPTA:1,2018-06-04T09:00:00Z,30.2791,-87.5561,24.7,11111222 
DISL,ioos:station:DISL:PPTA:1,2018-06-04T09:30:00Z,30.2791,-87.5561,24.9,11111222 
DISL,ioos:station:DISL:PPTA:1,2018-06-04T09:35:00Z,30.2791,-87.5561,24.87,1111122 
DISL,ioos:station:DISL:PPTA:1,2018-06-04T10:00:00Z,30.2791,-87.5561,24.9,11111222 
DISL,ioos:station:DISL:PPTA:1,2018-06-04T10:30:00Z,30.2791,-87.5561,24.9,11111222 
DISL,ioos:station:DISL:PPTA:1,2018-06-04T10:35:00Z,30.2791,-87.5561,24.94,1111122 
DISL,ioos:station:DISL:PPTA:1,2018-06-04T11:00:00Z,30.2791,-87.5561,25.0,11111222 
DISL,ioos:station:DISL:PPTA:1,2018-06-04T11:30:00Z,30.2791,-87.5561,25.0,11111222 
DISL,ioos:station:DISL:PPTA:1,2018-06-04T11:35:00Z,30.2791,-87.5561,25.01,1111122 
DISL,ioos:station:DISL:PPTA:1,2018-06-04T12:00:00Z,30.2791,-87.5561,25.1,11111222 
DISL,ioos:station:DISL:PPTA:1,2018-06-04T12:30:00Z,30.2791,-87.5561,25.3,11111222 
DISL,ioos:station:DISL:PPTA:1,2018-06-04T12:35:00Z,30.2791,-87.5561,25.33,1111122 
DISL,ioos:station:DISL:PPTA:1,2018-06-04T13:00:00Z,30.2791,-87.5561,25.6,11111222 
DISL,ioos:station:DISL:PPTA:1,2018-06-04T13:30:00Z,30.2791,-87.5561,25.7,11111222 
DISL,ioos:station:DISL:PPTA:1,2018-06-04T13:35:00Z,30.2791,-87.5561,25.82,1111122 
DISL,ioos:station:DISL:PPTA:1,2018-06-04T14:00:00Z,30.2791,-87.5561,26.1,11111222 
DISL,ioos:station:DISL:PPTA:1,2018-06-04T14:30:00Z,30.2791,-87.5561,26.7,11111222 
DISL,ioos:station:DISL:PPTA:1,2018-06-04T14:35:00Z,30.2791,-87.5561,27.11,1111122 
DISL,ioos:station:DISL:PPTA:1,2018-06-04T15:00:00Z,30.2791,-87.5561,27.4,11111222 
DISL,ioos:station:DISL:PPTA:1,2018-06-04T15:30:00Z,30.2791,-87.5561,27.3,11111222 
DISL,ioos:station:DISL:PPTA:1,2018-06-04T15:35:00Z,30.2791,-87.5561,27.58,1111122 
DISL,ioos:station:DISL:PPTA:1,2018-06-04T16:00:00Z,30.2791,-87.5561,28.0,11111222 
DISL,ioos:station:DISL:PPTA:1,2018-06-04T16:30:00Z,30.2791,-87.5561,28.3,11111222 
DISL,ioos:station:DISL:PPTA:1,2018-06-04T16:35:00Z,30.2791,-87.5561,28.71,1111122 
DISL,ioos:station:DISL:PPTA:1,2018-06-04T17:00:00Z,30.2791,-87.5561,28.7,11111222 
DISL,ioos:station:DISL:PPTA:1,2018-06-04T17:30:00Z,30.2791,-87.5561,28.7,11111222 
DISL,ioos:station:DISL:PPTA:1,2018-06-04T17:35:00Z,30.2791,-87.5561,29.27,1111122 
DISL,ioos:station:DISL:PPTA:1,2018-06-04T18:00:00Z,30.2791,-87.5561,29.4,11111222 
DISL,ioos:station:DISL:PPTA:1,2018-06-04T18:30:00Z,30.2791,-87.5561,28.8,11111222 
DISL,ioos:station:DISL:PPTA:1,2018-06-04T18:35:00Z,30.2791,-87.5561,28.97,1111122 
DISL,ioos:station:DISL:PPTA:1,2018-06-04T19:00:00Z,30.2791,-87.5561,29.6,11111222 
DISL,ioos:station:DISL:PPTA:1,2018-06-04T19:30:00Z,30.2791,-87.5561,29.6,11111222 
DISL,ioos:station:DISL:PPTA:1,2018-06-04T19:35:00Z,30.2791,-87.5561,30.05,1111122 
DISL,ioos:station:DISL:PPTA:1,2018-06-04T20:00:00Z,30.2791,-87.5561,29.6,11111222 
DISL,ioos:station:DISL:PPTA:1,2018-06-04T20:30:00Z,30.2791,-87.5561,29.3,11111222 
DISL,ioos:station:DISL:PPTA:1,2018-06-04T20:35:00Z,30.2791,-87.5561,29.28,1111122 
DISL,ioos:station:DISL:PPTA:1,2018-06-04T21:00:00Z,30.2791,-87.5561,29.6,11111222 
DISL,ioos:station:DISL:PPTA:1,2018-06-04T21:30:00Z,30.2791,-87.5561,30.8,11111222 
DISL,ioos:station:DISL:PPTA:1,2018-06-04T21:35:00Z,30.2791,-87.5561,30.64,1111122 
DISL,ioos:station:DISL:PPTA:1,2018-06-04T22:00:00Z,30.2791,-87.5561,30.7,11111222 
DISL,ioos:station:DISL:PPTA:1,2018-06-04T22:30:00Z,30.2791,-87.5561,30.8,11111222 
DISL,ioos:station:DISL:PPTA:1,2018-06-04T22:35:00Z,30.2791,-87.5561,29.99,1111122 
DISL,ioos:station:DISL:PPTA:1,2018-06-04T23:00:00Z,30.2791,-87.5561,31.3,11111222 
DISL,ioos:station:DISL:PPTA:1,2018-06-04T23:30:00Z,30.2791,-87.5561,30.5,11111222 
DISL,ioos:station:DISL:PPTA:1,2018-06-04T23:35:00Z,30.2791,-87.5561,30.07,1111122 
DISL,ioos:station:DISL:PPTA:1,2018-06-05T00:00:00Z,30.2791,-87.5561,29.3,11111222 
DISL,ioos:station:DISL:PPTA:1,2018-06-05T00:30:00Z,30.2791,-87.5561,28.5,11111222 
DISL,ioos:station:DISL:PPTA:1,2018-06-05T00:35:00Z,30.2791,-87.5561,28.25,1111122 
DISL,ioos:station:DISL:PPTA:1,2018-06-05T01:00:00Z,30.2791,-87.5561,27.8,11111222 
DISL,ioos:station:DISL:PPTA:1,2018-06-05T01:30:00Z,30.2791,-87.5561,27.6,11111222 
DISL,ioos:station:DISL:PPTA:1,2018-06-05T01:35:00Z,30.2791,-87.5561,27.48,1111122 
DISL,ioos:station:DISL:PPTA:1,2018-06-05T02:00:00Z,30.2791,-87.5561,27.2,11111222 
DISL,ioos:station:DISL:PPTA:1,2018-06-05T02:30:00Z,30.2791,-87.5561,26.7,11111222 
DISL,ioos:station:DISL:PPTA:1,2018-06-05T02:35:00Z,30.2791,-87.5561,26.75,1111122 
DISL,ioos:station:DISL:PPTA:1,2018-06-05T03:00:00Z,30.2791,-87.5561,26.6,11111222 
DISL,ioos:station:DISL:PPTA:1,2018-06-05T03:30:00Z,30.2791,-87.5561,26.5,11111222 
DISL,ioos:station:DISL:PPTA:1,2018-06-05T03:35:00Z,30.2791,-87.5561,26.35,1111122 
DISL,ioos:station:DISL:PPTA:1,2018-06-05T04:00:00Z,30.2791,-87.5561,26.4,11111222 
DISL,ioos:station:DISL:PPTA:1,2018-06-05T04:30:00Z,30.2791,-87.5561,26.5,11111222 
DISL,ioos:station:DISL:PPTA:1,2018-06-05T04:35:00Z,30.2791,-87.5561,26.45,1111122 
DISL,ioos:station:DISL:PPTA:1,2018-06-05T05:00:00Z,30.2791,-87.5561,26.0,11111222 
DISL,ioos:station:DISL:PPTA:1,2018-06-05T05:30:00Z,30.2791,-87.5561,26.1,11111222 
DISL,ioos:station:DISL:PPTA:1,2018-06-05T05:35:00Z,30.2791,-87.5561,26.11,1111122 
DISL,ioos:station:DISL:PPTA:1,2018-06-05T06:00:00Z,30.2791,-87.5561,26.2,11111222 
DISL,ioos:station:DISL:PPTA:1,2018-06-05T06:30:00Z,30.2791,-87.5561,26.1,11111222 
DISL,ioos:station:DISL:PPTA:1,2018-06-05T06:35:00Z,30.2791,-87.5561,26.01,1111122 
DISL,ioos:station:DISL:PPTA:1,2018-06-05T07:00:00Z,30.2791,-87.5561,26.5,11111222 